This is the latest recevied weather packets stored in our database for station/object KP4FJC. If no packets are shown the sender has not sent any weather packets the latest 10 day(s).
| Time | Temp. | Humidity | Pressure | Rain* | Wind** | Luminosity | Snow |
|---|---|---|---|---|---|---|---|
| 1777641179 | 28.89° C | 74% | 1016.5 hPa | 0 mm | - | 567 W/m² | - |
| 1777640875 | 29.44° C | 73% | 1016.5 hPa | 0 mm | - | 571 W/m² | - |
| 1777640573 | 28.33° C | 77% | 1016.4 hPa | 0 mm | - | 562 W/m² | - |
| 1777640269 | 28.33° C | 77% | 1016.2 hPa | 0 mm | - | 444 W/m² | - |
| 1777639965 | 27.78° C | 78% | 1016.3 hPa | 0 mm | - | 398 W/m² | - |
| 1777639662 | 27.78° C | 79% | 1016.3 hPa | 0 mm | - | 463 W/m² | - |
| 1777639361 | 28.33° C | 79% | 1016.2 hPa | 0 mm | - | 447 W/m² | - |
| 1777639055 | 27.78° C | 80% | 1016.2 hPa | 0 mm | - | 373 W/m² | - |
| 1777638752 | 27.78° C | 80% | 1016.1 hPa | 0 mm | - | 424 W/m² | - |
| 1777638448 | 27.22° C | 82% | 1016 hPa | 0 mm | - | 422 W/m² | - |
| 1777638146 | 27.78° C | 81% | 1015.9 hPa | 0 mm | - | 388 W/m² | - |
| 1777637841 | 27.78° C | 82% | 1015.8 hPa | 0 mm | - | 366 W/m² | - |
| 1777637537 | 27.22° C | 83% | 1016 hPa | 0 mm | - | 341 W/m² | - |
| 1777637235 | 26.67° C | 85% | 1015.8 hPa | 0 mm | - | 315 W/m² | - |
| 1777636933 | 26.11° C | 87% | 1015.8 hPa | 0 mm | - | 293 W/m² | - |
| 1777636628 | 26.11° C | 91% | 1015.8 hPa | 0 mm | - | 261 W/m² | - |
| 1777636324 | 25.56° C | 93% | 1015.6 hPa | 0 mm | - | 212 W/m² | - |
| 1777636013 | 25.56° C | 94% | 1015.5 hPa | 0 mm | - | 201 W/m² | - |
| 1777635710 | 25° C | 96% | 1015.4 hPa | 0 mm | - | 232 W/m² | - |
| 1777635407 | 24.44° C | 97% | 1015.2 hPa | 0 mm | - | 160 W/m² | - |
| 1777635104 | 24.44° C | 98% | 1015.3 hPa | 0 mm | - | 109 W/m² | - |
| 1777634799 | 24.44° C | 98% | 1015.4 hPa | 0 mm | - | 109 W/m² | - |
| 1777634497 | 23.89° C | 98% | 1015.5 hPa | 0 mm | - | 122 W/m² | - |
| 1777634193 | 23.89° C | 98% | 1015.4 hPa | 0 mm | - | 108 W/m² | - |
| 1777633890 | 23.89° C | 99% | 1015.4 hPa | 0 mm | - | 77 W/m² | - |
* Rain latest hour (hover to see other rain measurements)
** Current wind speed in m/s (hover to see current wind gust speed)